Location: Kolin
(50.0330°N, 15.2000°E)
Time: 17:18:59
(UTC+01:00)

ISS - Pass Details

Date: 28 November 2019
Orbit: 411 x 421 km, 51.6° (Epoch: 14 December)

Event Time Altitude Azimuth Distance (km) Brightness Sun altitude
Rises 16:48:05 0° 232° (SW) 2,346 2.0 -7.3°
Reaches altitude 10° 16:50:12 10° 225° (SW) 1,488 0.4 -7.6°
Maximum altitude 16:53:24 45° 152° (SSE) 583 -3.1 -8.0°
Enters shadow 16:56:28 11° 79° (E) 1,432 -1.7 -8.5°
